Weather History for Jonesboro, AR

Change the Weather History Date:

Friday, September 14, 2012

  Actual Average Record
Temperature  
Mean Temperature 74 °F 73 °F  
Max Temperature 80 °F 84 °F 100 °F (1939)
Min Temperature 68 °F 61 °F 44 °F (1917)
Degree Days  
Heating Degree Days 0 0  
Month to date heating degree days 0 0  
Since 1 July heating degree days 0 0  
Cooling Degree Days 9 8  
Month to date cooling degree days 181 140  
Year to date cooling degree days 2220 1686  
Growing Degree Days 24 (Base 50)    
Moisture  
Dew Point 63 °F    
Average Humidity 73    
Maximum Humidity 87    
Minimum Humidity 58    
Precipitation  
Precipitation 0.00 in 0.10 in 2.05 in (1989)
Month to date precipitation 4.27 1.41  
Year to date precipitation 23.69 32.52  
Snow  
Snow 0.00 in - - ()
Month to date snowfall 0.0  
Since 1 July snowfall 0.0  
Since 1 September snowfall 0.0  
Snow Depth 0.00 in    
Sea Level Pressure  
Sea Level Pressure 30.21 in    
Wind  
Wind Speed 8 mph (NE)    
Max Wind Speed 15 mph    
Max Gust Speed 23 mph    
Visibility 10 miles    
Events      
T = Trace of Precipitation, MM = Missing Value Source: NWS Daily Summary

Daily Weather History Graph

Daily Weather History Graph

Search for Another Location

Airport:

Trip Planner

Search our weather history database for the weather conditions in past years. The results will help you decide how hot, cold, wet, or windy it might be!

Date:

Astronomy

Sep. 14, 2012 Rise Set
Actual Time 6:44 AM CDT 7:10 PM CDT
Civil Twilight 6:19 AM CDT 7:36 PM CDT
Nautical Twilight 5:48 AM CDT 8:06 PM CDT
Astronomical Twilight 5:18 AM CDT 8:36 PM CDT
Moon 5:10 AM CDT (9/14) 6:06 PM CDT (9/14)
Length of Visible Light 13h 16m
Length of Day
12h 25m
Waning Crescent, 2% of the Moon is Illuminated
Sep 14
Waning Crescent
Sep 15
New
Sep 22
First Quarter
Sep 29
Full
Oct 8
Last Quarter

Hourly Weather History & Observations

Time (CDT) Temp. Heat Index Dew Point Humidity Pressure Visibility Wind Dir Wind Speed Gust Speed Precip Events Conditions
12:53 AM 71.1 °F - 66.0 °F 84% 30.19 in 10.0 mi ESE 4.6 mph - N/A   Mostly Cloudy
1:53 AM 69.1 °F - 64.9 °F 87% 30.18 in 10.0 mi Calm Calm - N/A   Clear
2:53 AM 68.0 °F - 64.9 °F 90% 30.17 in 10.0 mi ENE 4.6 mph - N/A   Clear
3:53 AM 69.1 °F - 64.9 °F 87% 30.16 in 10.0 mi NE 3.5 mph - N/A   Mostly Cloudy
4:53 AM 68.0 °F - 64.9 °F 90% 30.16 in 9.0 mi Calm Calm - N/A   Overcast
5:53 AM 69.1 °F - 64.9 °F 87% 30.18 in 10.0 mi NNE 4.6 mph - N/A   Mostly Cloudy
6:53 AM 69.1 °F - 64.9 °F 87% 30.20 in 10.0 mi NNE 8.1 mph - N/A   Overcast
7:53 AM 69.1 °F - 63.0 °F 81% 30.21 in 10.0 mi NE 9.2 mph - N/A   Scattered Clouds
8:53 AM 68.0 °F - 62.1 °F 81% 30.22 in 10.0 mi ENE 11.5 mph - N/A   Mostly Cloudy
9:53 AM 70.0 °F - 62.1 °F 76% 30.24 in 10.0 mi ENE 13.8 mph - N/A   Mostly Cloudy
10:53 AM 72.0 °F - 63.0 °F 73% 30.24 in 10.0 mi NE 8.1 mph - N/A   Scattered Clouds
11:53 AM 75.0 °F - 63.0 °F 66% 30.23 in 10.0 mi NNE 8.1 mph - N/A   Partly Cloudy
12:53 PM 77.0 °F - 64.0 °F 64% 30.22 in 10.0 mi ENE 9.2 mph - N/A   Scattered Clouds
1:53 PM 78.1 °F - 64.0 °F 62% 30.21 in 10.0 mi NE 11.5 mph - N/A   Partly Cloudy
2:53 PM 78.1 °F - 64.9 °F 64% 30.19 in 10.0 mi NE 9.2 mph - N/A   Clear
3:53 PM 80.1 °F 81.7 °F 64.0 °F 58% 30.19 in 10.0 mi ENE 11.5 mph - N/A   Clear
4:53 PM 77.0 °F - 64.0 °F 64% 30.18 in 10.0 mi NE 10.4 mph - N/A   Clear
5:53 PM 75.0 °F - 64.0 °F 69% 30.19 in 10.0 mi NE 11.5 mph - N/A   Partly Cloudy
6:53 PM 73.0 °F - 63.0 °F 71% 30.20 in 10.0 mi NE 12.7 mph - N/A   Scattered Clouds
7:28 PM 71.6 °F - 62.6 °F 73% 30.22 in 10.0 mi NE 10.4 mph - N/A   Scattered Clouds
7:37 PM 71.6 °F - 62.6 °F 73% 30.22 in 10.0 mi NE 9.2 mph - N/A   Mostly Cloudy
7:53 PM 72.0 °F - 63.0 °F 73% 30.21 in 10.0 mi NE 6.9 mph - N/A   Overcast
8:53 PM 70.0 °F - 62.1 °F 76% 30.22 in 10.0 mi NE 9.2 mph - N/A   Scattered Clouds
9:53 PM 69.1 °F - 62.1 °F 78% 30.23 in 10.0 mi NE 10.4 mph - N/A   Scattered Clouds
10:51 PM 68.0 °F - 60.8 °F 78% 30.24 in 10.0 mi NE 8.1 mph - N/A   Partly Cloudy
10:53 PM 68.0 °F - 61.0 °F 78% 30.23 in 10.0 mi NE 9.2 mph - N/A   Partly Cloudy
11:53 PM 68.0 °F - 61.0 °F 78% 30.23 in 10.0 mi NE 6.9 mph - N/A   Clear